Weather History for Somerville, NJ

Change the Weather History Date:

Thursday, January 26, 2012

  Actual Average Record
Temperature  
Mean Temperature 34 °F -  
Max Temperature 37 °F 40 °F 74 °F (1950)
Min Temperature 32 °F 22 °F -4 °F (1961)
Degree Days  
Heating Degree Days 30    
Moisture  
Dew Point 33 °F    
Average Humidity 89    
Maximum Humidity 93    
Minimum Humidity 67    
Precipitation  
Precipitation 0.31 in - - ()
Sea Level Pressure  
Sea Level Pressure 30.06 in    
Wind  
Wind Speed 2 mph (NE)    
Max Wind Speed 5 mph    
Max Gust Speed -    
Visibility 4 miles    
Events Rain , Snow    
Averages and records for this station are not official NWS values.
T = Trace of Precipitation, MM = Missing Value Source: NWS Daily Summary

Daily Weather History Graph

Daily Weather History Graph

Search for Another Location

Airport:

Trip Planner

Search our weather history database for the weather conditions in past years. The results will help you decide how hot, cold, wet, or windy it might be!

Date:

Astronomy

Jan. 26, 2012 Rise Set
Actual Time 7:14 AM EST 5:08 PM EST
Civil Twilight 6:44 AM EST 5:37 PM EST
Nautical Twilight 6:11 AM EST 6:11 PM EST
Astronomical Twilight 5:39 AM EST 6:43 PM EST
Moon 8:39 AM EST (1/26) 9:00 PM EST (1/26)
Length of Visible Light 10h 53m
Length of Day
9h 54m
Waxing Crescent, 12% of the Moon is Illuminated
Jan 26
Waxing Crescent
Jan 30
First Quarter
Feb 7
Full
Feb 14
Last Quarter
Feb 21
New

Hourly Weather History & Observations

Time (EST) Temp. Windchill Dew Point Humidity Pressure Visibility Wind Dir Wind Speed Gust Speed Precip Events Conditions
12:53 AM 35.1 °F 31.0 °F 25.0 °F 67% 30.17 in 10.0 mi North 4.6 mph - N/A   Overcast
2:53 AM 33.1 °F - 30.0 °F 89% 30.24 in 6.0 mi Calm Calm - 0.03 in Rain Light Rain
3:53 AM 33.1 °F - 30.9 °F 92% 30.23 in 3.0 mi Calm Calm - 0.00 in Snow Light Snow
4:53 AM 33.1 °F - 30.9 °F 92% 30.21 in 7.0 mi Calm Calm - 0.00 in   Overcast
5:53 AM 32.0 °F - 30.0 °F 92% 30.21 in 4.0 mi Calm Calm - N/A   Overcast
6:53 AM 32.0 °F - 30.0 °F 92% 30.22 in 4.0 mi Calm Calm - N/A   Mostly Cloudy
7:43 AM 33.8 °F - 30.2 °F 87% 30.21 in 2.5 mi Calm Calm - N/A   Overcast
7:53 AM 33.1 °F - 30.9 °F 92% 30.21 in 2.5 mi Calm Calm - N/A   Overcast
8:08 AM 33.8 °F - 30.2 °F 87% 30.21 in 3.0 mi Calm Calm - N/A   Overcast
8:21 AM 33.8 °F - 30.2 °F 87% 30.20 in 2.5 mi Calm Calm - N/A   Overcast
8:32 AM 33.8 °F - 30.2 °F 87% 30.20 in 4.0 mi Calm Calm - N/A   Mostly Cloudy
8:53 AM 34.0 °F - 32.0 °F 92% 30.21 in 3.0 mi Calm Calm - N/A   Mostly Cloudy
9:53 AM 35.1 °F - 32.0 °F 89% 30.19 in 5.0 mi Calm Calm - 0.01 in   Overcast
10:53 AM 37.0 °F - 32.0 °F 82% 30.16 in 7.0 mi Calm Calm - 0.00 in   Overcast
11:53 AM 37.0 °F 34.5 °F 32.0 °F 82% 30.12 in 6.0 mi East 3.5 mph - 0.01 in Rain Light Rain
12:53 PM 37.9 °F - 33.1 °F 83% 30.09 in 6.0 mi Calm Calm - 0.00 in   Overcast
1:15 PM 37.4 °F - 32.0 °F 81% 30.09 in 6.0 mi Calm Calm - 0.00 in Rain Light Rain
1:53 PM 37.0 °F 34.5 °F 33.1 °F 86% 30.08 in 5.0 mi NE 3.5 mph - 0.01 in   Overcast
2:16 PM 37.4 °F 33.8 °F 33.8 °F 87% 30.07 in 5.0 mi ENE 4.6 mph - N/A   Overcast
2:53 PM 37.0 °F - 33.1 °F 86% 30.06 in 5.0 mi Calm Calm - 0.00 in Rain Light Rain
3:17 PM 37.4 °F - 33.8 °F 87% 30.05 in 5.0 mi Calm Calm - N/A Rain Light Rain
3:53 PM 37.0 °F 34.5 °F 34.0 °F 89% 30.05 in 5.0 mi ESE 3.5 mph - 0.01 in Rain Light Rain
4:10 PM 37.4 °F 33.8 °F 33.8 °F 87% 30.04 in 4.0 mi ESE 4.6 mph - 0.01 in Rain Light Rain
4:53 PM 36.0 °F 33.3 °F 33.1 °F 89% 30.04 in 5.0 mi ESE 3.5 mph - 0.03 in Rain Light Rain
5:53 PM 36.0 °F - 33.1 °F 89% 30.02 in 5.0 mi Calm Calm - 0.01 in Rain Light Rain
6:53 PM 37.0 °F - 34.0 °F 89% 30.00 in 5.0 mi Calm Calm - 0.02 in Rain Light Rain
7:53 PM 37.0 °F 34.5 °F 34.0 °F 89% 29.98 in 3.0 mi NNE 3.5 mph - 0.04 in Rain Light Rain
8:23 PM 37.4 °F - 33.8 °F 87% 29.95 in 3.0 mi Calm Calm - 0.00 in Rain Light Rain
8:45 PM 37.4 °F 34.9 °F 35.6 °F 93% 29.94 in 2.0 mi NE 3.5 mph - 0.02 in Rain Light Rain
8:53 PM 37.0 °F 33.3 °F 35.1 °F 93% 29.94 in 2.0 mi NE 4.6 mph - 0.02 in Rain Light Rain
9:25 PM 37.4 °F 33.8 °F 35.6 °F 93% 29.90 in 3.0 mi NE 4.6 mph - 0.02 in Rain Light Rain
9:53 PM 37.0 °F 34.5 °F 35.1 °F 93% 29.90 in 4.0 mi NNE 3.5 mph - 0.03 in Rain Light Rain
10:17 PM 37.4 °F - 35.6 °F 93% 29.87 in 2.5 mi Calm Calm - 0.02 in Rain Light Rain
10:50 PM 37.4 °F - 35.6 °F 93% 29.84 in 3.0 mi Calm Calm - 0.07 in Rain Light Rain
10:53 PM 37.0 °F 34.5 °F 35.1 °F 93% 29.84 in 2.5 mi NNE 3.5 mph - 0.08 in Rain Light Rain
11:07 PM 37.4 °F 33.8 °F 35.6 °F 93% 29.82 in 5.0 mi NNE 4.6 mph - 0.01 in Rain Light Rain
11:53 PM 37.0 °F 33.3 °F 35.1 °F 93% 29.80 in 8.0 mi NNE 4.6 mph - 0.01 in   Overcast